CDT,Max TemperatureF,Mean TemperatureF,Min TemperatureF,Max Dew PointF,MeanDew PointF,Min DewpointF,Max Humidity, Mean Humidity, Min Humidity, Max Sea Level PressureIn, Mean Sea Level PressureIn, Min Sea Level PressureIn, Max VisibilityMiles, Mean VisibilityMiles, Min VisibilityMiles, Max Wind SpeedMPH, Mean Wind SpeedMPH, Max Gust SpeedMPH,PrecipitationIn, CloudCover, Events, WindDirDegrees
2013-5-1,78,69,60,70,62,59,100,78,51,30.07,29.97,29.89,10,9,1,15,3,24,0.08,3,,75
2013-5-2,66,54,42,66,53,41,100,89,68,30.19,30.13,30.04,10,9,4,17,3,25,0.27,8,Rain,328
2013-5-3,59,48,37,41,33,21,100,66,23,30.18,30.07,29.98,10,9,2,23,12,33,0.62,5,Rain,309
2013-5-4,53,44,35,45,38,32,100,81,47,29.99,29.93,29.88,10,10,4,17,4,25,0.00,7,,292
2013-5-5,64,53,42,45,40,36,81,64,39,30.09,30.04,29.98,10,10,10,17,6,24,0.00,4,,312
2013-5-6,73,60,46,55,50,45,100,68,41,30.07,30.03,29.99,10,10,7,13,3,16,0.00,1,,319
2013-5-7,80,64,48,61,51,45,100,59,30,30.09,30.04,29.99,10,8,2,6,0,,0.00,0,,66
2013-5-8,84,67,50,64,55,50,100,51,32,30.07,30.02,29.96,10,9,3,8,2,17,0.00,1,Rain,162
2013-5-9,75,70,64,70,62,55,100,76,50,30.08,29.98,29.91,10,8,2,13,4,24,0.09,6,Thunderstorm,192
2013-5-10,78,69,60,63,57,52,82,60,47,30.05,29.96,29.91,10,7,0,9,2,16,0.02,4,Thunderstorm,309
2013-5-11,77,64,51,61,50,43,100,53,32,30.18,30.10,30.03,10,10,4,14,4,20,0.00,1,,351
2013-5-12,77,59,41,46,38,28,100,47,18,30.27,30.22,30.16,10,10,7,10,3,,0.00,0,,48
2013-5-13,84,65,46,54,43,36,100,51,19,30.24,30.18,30.12,10,9,2,14,3,22,0.00,1,,225
2013-5-14,87,78,68,55,48,41,50,35,24,30.16,30.10,30.03,10,10,10,14,8,21,0.00,0,,225
2013-5-15,77,72,68,64,58,46,83,64,38,30.09,30.02,29.92,10,10,7,12,6,21,0.00,5,,186
2013-5-16,71,68,64,70,66,57,100,94,68,29.94,29.88,29.84,10,9,3,16,4,26,0.60,8,Thunderstorm,160
2013-5-17,80,72,64,77,70,64,100,84,65,29.96,29.91,29.87,10,6,0,5,0,,0.04,8,,178
2013-5-18,87,78,69,79,71,68,100,69,52,29.98,29.93,29.88,10,6,0,10,2,18,0.00,5,,183
2013-5-19,87,80,73,70,65,63,78,60,43,29.90,29.84,29.76,10,10,7,16,9,25,0.00,0,,182
2013-5-20,87,76,64,68,67,64,100,67,49,29.89,29.84,29.77,10,10,10,21,8,26,0.03,5,Thunderstorm,191
2013-5-21,68,65,62,68,65,63,100,100,94,29.96,29.87,29.72,10,8,1,17,3,52,1.81,7,Thunderstorm,79
2013-5-22,82,71,60,68,59,52,100,66,37,29.98,29.91,29.86,10,10,4,13,4,18,1.27,3,,254
2013-5-23,80,66,53,72,66,59,100,77,57,30.13,30.05,29.97,10,10,7,7,1,,0.00,1,,16
2013-5-24,80,70,60,64,61,59,100,68,51,30.28,30.21,30.12,10,9,0,14,4,18,0.00,2,,81
2013-5-25,86,73,60,68,61,52,100,68,41,30.27,30.20,30.11,10,10,10,12,2,20,0.00,3,,115
2013-5-26,86,76,66,70,65,59,100,71,45,30.15,30.11,30.05,10,10,7,10,3,20,0.00,2,,180
2013-5-27,86,80,73,70,65,63,88,65,45,30.06,29.99,29.90,10,10,5,13,7,28,0.00,4,,181
2013-5-28,86,78,71,66,64,61,83,60,43,29.98,29.92,29.87,10,10,10,15,9,25,0.00,2,,173
2013-5-29,86,80,73,66,64,63,78,62,45,29.96,29.90,29.82,10,10,5,13,8,25,0.00,3,,154
2013-5-30,78,74,69,79,70,64,100,84,61,29.92,29.85,29.77,10,9,1,16,8,31,4.07,7,Thunderstorm,157
2013-5-31,89,79,69,79,73,70,100,82,52,29.92,29.85,29.73,10,9,2,14,6,28,1.69,6,Thunderstorm,181